Regional Weather Roundup
Issued by NWS

Home | Current Version | Previous Version | Text Only | Print | Product List | Glossary Off
Versions: 1 2 3 4 5 6 7 8 9 10 11 12 13 14 15 16 17 18 19 20 21 22 23 24 25 26 27 28 29 30 31 32 33 34 35 36 37 38 39 40 41 42 43 44 45 46 47 48 49 50

000
ASUS43 KMKX 301210
RWRWI

WISCONSIN REGIONAL WEATHER ROUNDUP
NATIONAL WEATHER SERVICE MILWAUKEE/SULLIVAN WI
600 AM CST FRI JAN 30 2015

NOTE: "FAIR" INDICATES FEW OR NO CLOUDS BELOW 12,000 FEET WITH NO
SIGNIFICANT WEATHER AND/OR OBSTRUCTIONS TO VISIBILITY.

WIZ001-002-006>008-014>016-023>028-301300-
NORTHWEST WISCONSIN

CITY           SKY/WX    TMP DP  RH WIND       PRES   REMARKS
SUPERIOR ARPT  PTCLDY     1  -3  83 SW6       30.53S WCI -10
6HR MIN TEMP:  -1; 6HR MAX TEMP:   8;

ASHLAND        CLOUDY    10   3  73 W5        30.50S WCI   2
6HR MIN TEMP:  10; 6HR MAX TEMP:  14;

HAYWARD        MOCLDY    -3  -8  79 CALM      30.47S
6HR MIN TEMP:  -3; 6HR MAX TEMP:   7;

SIREN          PTCLDY    -1  -4  85 CALM      30.51S
6HR MIN TEMP:  -1; 6HR MAX TEMP:   8;

CUMBERLAND     PTCLDY     0  -6  78 CALM      30.47F
RICE LAKE      PTCLDY     1  -2  86 CALM      30.50F
6HR MIN TEMP:   0; 6HR MAX TEMP:   9;

CHETEK         PTCLDY     1  -2  86 CALM      30.50S
6HR MIN TEMP:   0; 6HR MAX TEMP:   7;

LADYSMITH      MOCLDY     5   1  82 W5        30.48S WCI  -4
6HR MIN TEMP:   5; 6HR MAX TEMP:  13;

EAU CLAIRE     PTCLDY     4  -2  76 CALM      30.50S
6HR MIN TEMP:   2; 6HR MAX TEMP:  12;

MENOMONIE      MOCLDY     8   2  75 NW5       30.52S WCI   0
6HR MIN TEMP:   6; 6HR MAX TEMP:  13;

NEW RICHMOND   PTCLDY     6   2  86 CALM      30.50F
6HR MIN TEMP:   4; 6HR MAX TEMP:  10;

OSCEOLA        PTCLDY     8   3  82 CALM      30.54F
6HR MIN TEMP:   6; 6HR MAX TEMP:  13;

$$

WIZ003>005-009-010-017-018-301300-
NORTH CENTRAL WISCONSIN

CITY           SKY/WX    TMP DP  RH WIND       PRES   REMARKS
MANITOWISH WTR CLOUDY     9   3  77 NW6       30.40S WCI  -1
6HR MIN TEMP:   9; 6HR MAX TEMP:  12;

ARBOR VITAE    CLOUDY    11   5  75 N8        30.40S WCI   0
6HR MIN TEMP:  11; 6HR MAX TEMP:  14;

WOODRUFF       CLOUDY    11   5  75 N8        30.40S WCI   0
6HR MIN TEMP:  11; 6HR MAX TEMP:  14;

RHINELANDER    CLOUDY    10   3  73 NW8       30.40R WCI  -2
6HR MIN TEMP:  10; 6HR MAX TEMP:  14;

EAGLE RIVER    CLOUDY    10   2  72 CALM      30.39S
6HR MIN TEMP:  10; 6HR MAX TEMP:  12;

LAND O LAKES   CLOUDY     9   3  75 NW6       30.40R WCI   0
6HR MIN TEMP:   9; 6HR MAX TEMP:  13;

PHILLIPS       CLOUDY     9   3  75 CALM      30.41S
6HR MIN TEMP:   9; 6HR MAX TEMP:  13;

TOMAHAWK       CLOUDY    11   4  72 CALM      30.42S
6HR MIN TEMP:  11; 6HR MAX TEMP:  15;

MEDFORD        CLOUDY     8   3  80 W3        30.42S
6HR MIN TEMP:   8; 6HR MAX TEMP:  14;

MERRILL        CLOUDY    13   4  70 N7        30.43S WCI   2
6HR MIN TEMP:  13; 6HR MAX TEMP:  16;

$$

WIZ029-030-035-036-043>047-301300-
CENTRAL WISCONSIN

CITY           SKY/WX    TMP DP  RH WIND       PRES   REMARKS
WAUSAU         CLOUDY    13   4  67 NW6       30.43S WCI   4
6HR MIN TEMP:  13; 6HR MAX TEMP:  17;

MOSINEE        PTCLDY     9   1  72 NW5       30.44S WCI   0
MARSHFIELD     PTCLDY     6   0  76 NW7       30.45S WCI  -6
6HR MIN TEMP:   6; 6HR MAX TEMP:  16;

STEVENS POINT  CLEAR     11   2  66 NW3       30.45S
6HR MIN TEMP:  11; 6HR MAX TEMP:  18;

WAUPACA        CLOUDY    18   6  60 NW6       30.47S WCI   9
6HR MIN TEMP:  18; 6HR MAX TEMP:  22;

WAUTOMA        CLOUDY    10   4  77 CALM      30.49R
6HR MIN TEMP:   9; 6HR MAX TEMP:  22; 6HR PCP: TRACE;

WISC RAPIDS    PTCLDY    11   2  67 NW8       30.48R WCI  -1
6HR MIN TEMP:  11; 6HR MAX TEMP:  20; 6HR PCP: TRACE;

CAMP DOUGLAS   CLEAR      5   5  98 W3        30.49S
6HR MIN TEMP:   5; 6HR MAX TEMP:  20;

$$

WIZ011>013-019>022-031-037>040-048>050-301300-
NORTHEAST WISCONSIN

CITY           SKY/WX    TMP DP  RH WIND       PRES   REMARKS
ANTIGO         CLOUDY    11   4  74 NW5       30.41R WCI   3
6HR MIN TEMP:  11; 6HR MAX TEMP:  15;

SHAWANO        CLOUDY    17   5  58 NW6       30.48R WCI   8
6HR MIN TEMP:  17; 6HR MAX TEMP:  22;

OCONTO         MOCLDY    14   3  61 CALM      30.48R
6HR MIN TEMP:  14; 6HR MAX TEMP:  18;

STURGEON BAY   PTCLDY    12   1  62 N8        30.48R WCI   1
6HR MIN TEMP:  12; 6HR MAX TEMP:  16;

GREEN BAY      CLOUDY    15   6  67 N5        30.48R WCI   8
6HR MIN TEMP:  14; 6HR MAX TEMP:  21;

MANITOWOC      CLOUDY    15   7  70 N6        30.48R WCI   6
6HR MIN TEMP:  15; 6HR MAX TEMP:  20;

APPLETON       CLOUDY   N/A N/A N/A NW7       30.46R
CLINTONVILLE   CLOUDY    18   5  57 NW5       30.47R WCI  11
OSHKOSH        CLEAR     15   3  59 N8        30.47R WCI   4
6HR MIN TEMP:  15; 6HR MAX TEMP:  22;

$$

WIZ032>034-041-042-053>061-301300-
SOUTHWEST WISCONSIN

CITY           SKY/WX    TMP DP  RH WIND       PRES   REMARKS
LA CROSSE      CLEAR     12   4  70 N3        30.54S
6HR MIN TEMP:  10; 6HR MAX TEMP:  20;

SPARTA         CLEAR      8   2  78 W3        30.52S
6HR MIN TEMP:   8; 6HR MAX TEMP:  19;

VIROQUA        CLEAR      9   5  82 N6        30.48R WCI  -1
6HR MIN TEMP:   9; 6HR MAX TEMP:  20;

BOSCOBEL       CLEAR     14   6  70 NW3       30.54R
6HR MIN TEMP:  14; 6HR MAX TEMP:  25;

PRAIRIE DU CHI CLEAR     15   8  73 NW5       30.54R WCI   8
6HR MIN TEMP:  15; 6HR MAX TEMP:  24;

PLATTEVILLE    CLEAR     15   8  75 NW6       30.49R WCI   6
6HR MIN TEMP:  15; 6HR MAX TEMP:  24;

$$

WIZ056-057-062-063-064-067-068-301300-
SOUTH CENTRAL WISCONSIN

CITY           SKY/WX    TMP DP  RH WIND       PRES   REMARKS
REEDSBURG      CLEAR     12   5  74 W6        30.50R WCI   3
6HR MIN TEMP:  12; 6HR MAX TEMP:  21;

BARABOO/DELLS  CLEAR     13   5  71 CALM      30.48R
6HR MIN TEMP:  12; 6HR MAX TEMP:  21;

LONE ROCK      CLEAR     15   6  67 NW8       30.53R WCI   4
6HR MIN TEMP:  15; 6HR MAX TEMP:  25; 6HR PCP: TRACE;

MINERAL POINT  CLEAR     14   9  79 NW6       30.47R WCI   5
MADISON        CLEAR     14   6  70 CALM      30.49R
6HR MIN TEMP:  13; 6HR MAX TEMP:  26;

MIDDLETON      CLEAR     15   7  69 NW5       30.49R WCI   8
6HR MIN TEMP:  15; 6HR MAX TEMP:  27;

WATERTOWN      PTCLDY    14   6  71 CALM      30.47R
6HR MIN TEMP:  14; 6HR MAX TEMP:  24;

MONROE         CLEAR     18  10  73 NW6       30.47R WCI   9
JANESVILLE     CLEAR     18   9  68 N5        30.48R WCI  11
$$

WIZ051-052-058>065-066-070>072-301300-
SOUTHEAST WISCONSIN

CITY           SKY/WX    TMP DP  RH WIND       PRES   REMARKS
MILWAUKEE      PTCLDY    19   8  62 NW10      30.47R WCI   7
6HR MIN TEMP:  19; 6HR MAX TEMP:  26;

WAUKESHA       CLEAR     14   5  67 NW6       30.47R WCI   5
MILWAUKEE/TIMM CLEAR     18   9  68 NW8       30.47R WCI   7
RACINE         CLEAR     19   9  65 NW7       30.48R WCI  10
6HR MIN TEMP:  19; 6HR MAX TEMP:  26;

BURLINGTON     CLEAR     16   5  62 N6        30.48R WCI   7
6HR MIN TEMP:  16; 6HR MAX TEMP:  24;

KENOSHA        CLEAR     18   9  68 NW9       30.47R WCI   7
6HR MIN TEMP:  18; 6HR MAX TEMP:  27;

FOND DU LAC    FLURRIES  13   3  64 NW7       30.47R WCI   3
6HR MIN TEMP:  11; 6HR MAX TEMP:  22; 6HR PCP: TRACE;

SHEBOYGAN      PTCLDY    16   6  65 N7        30.46R WCI   6
6HR MIN TEMP:  16; 6HR MAX TEMP:  22; 6HR PCP: TRACE;

WEST BEND      CLOUDY    16   7  67 NW3       30.46R
JUNEAU         CLEAR     11   4  73 NW3       30.47S
6HR MIN TEMP:  11; 6HR MAX TEMP:  23;

$$

LSZ147-162-301300-
LAKE SUPERIOR

STATION/POSITION TIME  TEMP    WIND        PRES    WAVE
                       AIR SEA DIR/SP/G            HT/PER
                 (UTC) (F)     (DEG/KT/KT) (MB)    (FT/S)
DEVILS ISLAND    1200   12     290/  7/  8 1033.9F
PORT WING        1140   11     310/  5/ 10 1032.8F
SAXON HARBOR     1100   14        CALM     1032.5S
$$

LMZ867-665-643>646-301300-
LAKE MICHIGAN

STATION/POSITION TIME  TEMP    WIND        PRES    WAVE



USA.gov is the U.S. government's official web portal to all federal, state and local government web resources and services.